Weather History for TJSJ - July, 2014

Change the Weather History Date:

Sunday, July 20, 2014

  Actual Average Record
Temperature  
Mean Temperature 86 °F 83 °F  
Max Temperature 91 °F 89 °F 92 °F (1995)
Min Temperature 81 °F 78 °F 71 °F (1939)
Degree Days  
Heating Degree Days 0 0  
Month to date heating degree days 0 0  
Since 1 June heating degree days 0 0  
Since 1 July heating degree days 0 0  
Cooling Degree Days 21 18  
Month to date cooling degree days 410 360  
Year to date cooling degree days 3426 3074  
Since 1 June cooling degree days 1020 909  
Growing Degree Days 36 (Base 50)    
Moisture  
Dew Point 76 °F    
Average Humidity 76    
Maximum Humidity 88    
Minimum Humidity 63    
Precipitation  
Precipitation 0.17 in 0.17 in 2.41 in (1915)
Month to date precipitation 2.73 3.31  
Year to date precipitation 21.91 26.40  
Sea Level Pressure  
Sea Level Pressure 30.07 in    
Wind  
Wind Speed 11 mph (ENE)    
Max Wind Speed 24 mph    
Max Gust Speed 29 mph    
Visibility 10 miles    
Events Rain    
T = Trace of Precipitation, MM = Missing Value Source: NWS Daily Summary

Daily Weather History Graph

Daily Weather History Graph

Search for Another Location

Airport or City:

Trip Planner

Search our weather history database for the weather conditions in past years. The results will help you decide how hot, cold, wet, or windy it might be!

Date:

Astronomy

Jul. 20, 2014 Rise Set
Actual Time 5:57 AM AST 7:02 PM AST
Civil Twilight 5:34 AM AST 7:26 PM AST
Nautical Twilight 5:06 AM AST 7:54 PM AST
Astronomical Twilight 4:37 AM AST 8:23 PM AST
Moon 12:50 AM AST (7/20) 1:54 PM AST (7/20)
Length of Visible Light 13h 52m
Length of Day
13h 05m
Waning Crescent, 34% of the Moon is Illuminated
Jul 20
Waning Crescent
Jul 26
New
Aug 3
First Quarter
Aug 10
Full
Aug 17
Last Quarter

Hourly Weather History & Observations

Time (AST) Temp. Heat Index Dew Point Humidity Pressure Visibility Wind Dir Wind Speed Gust Speed Precip Events Conditions
12:56 AM 82.0 °F 88.6 °F 75.0 °F 79% 30.07 in 10.0 mi East 6.9 mph - N/A   Partly Cloudy
1:56 AM 82.0 °F 88.6 °F 75.0 °F 79% 30.05 in 10.0 mi East 5.8 mph - N/A   Overcast
2:39 AM 82.4 °F 89.5 °F 75.2 °F 79% 30.05 in 10.0 mi East 6.9 mph - N/A   Partly Cloudy
2:56 AM 82.0 °F 89.4 °F 75.9 °F 82% 30.06 in 10.0 mi East 8.1 mph - N/A   Scattered Clouds
3:56 AM 81.0 °F 86.7 °F 75.0 °F 82% 30.06 in 10.0 mi East 6.9 mph - N/A   Partly Cloudy
4:56 AM 81.0 °F 86.7 °F 75.0 °F 82% 30.06 in 10.0 mi East 6.9 mph - N/A   Scattered Clouds
5:56 AM 81.0 °F 86.2 °F 73.9 °F 79% 30.07 in 10.0 mi East 6.9 mph - N/A   Scattered Clouds
6:56 AM 82.0 °F 87.9 °F 73.9 °F 76% 30.09 in 10.0 mi East 5.8 mph - N/A   Scattered Clouds
7:56 AM 84.0 °F 91.9 °F 75.0 °F 74% 30.10 in 10.0 mi East 10.4 mph - N/A   Partly Cloudy
8:56 AM 87.1 °F 96.3 °F 75.0 °F 67% 30.10 in 9.0 mi East 12.7 mph - N/A   Partly Cloudy
9:56 AM 88.0 °F 96.5 °F 73.9 °F 63% 30.10 in 9.0 mi East 16.1 mph - N/A   Partly Cloudy
10:56 AM 89.1 °F 100.2 °F 75.9 °F 65% 30.10 in 9.0 mi NE 15.0 mph - N/A   Partly Cloudy
11:56 AM 90.0 °F 101.3 °F 75.9 °F 63% 30.08 in 9.0 mi ENE 16.1 mph 20.7 mph N/A   Partly Cloudy
12:56 PM 90.0 °F 101.3 °F 75.9 °F 63% 30.07 in 9.0 mi ENE 18.4 mph 24.2 mph N/A   Partly Cloudy
1:56 PM 89.1 °F 100.2 °F 75.9 °F 65% 30.05 in 9.0 mi NE 19.6 mph - N/A   Partly Cloudy
2:56 PM 89.1 °F 100.2 °F 75.9 °F 65% 30.03 in 10.0 mi NE 21.9 mph 25.3 mph N/A   Scattered Clouds
3:56 PM 89.1 °F 100.2 °F 75.9 °F 65% 30.03 in 10.0 mi ENE 18.4 mph 25.3 mph N/A   Scattered Clouds
4:56 PM 88.0 °F 97.5 °F 75.0 °F 65% 30.02 in 10.0 mi ENE 18.4 mph - N/A   Scattered Clouds
5:56 PM 84.9 °F 94.1 °F 75.9 °F 74% 30.04 in 10.0 mi NE 15.0 mph - N/A   Scattered Clouds
6:56 PM 84.9 °F 95.3 °F 77.0 °F 77% 30.05 in 10.0 mi ENE 11.5 mph - N/A   Scattered Clouds
7:56 PM 84.0 °F 92.6 °F 75.9 °F 76% 30.07 in 10.0 mi ENE 10.4 mph - N/A   Partly Cloudy
8:56 PM 82.0 °F 91.0 °F 78.1 °F 88% 30.07 in 5.0 mi ESE 5.8 mph - 0.13 in Rain Light Rain
9:56 PM 82.0 °F 91.0 °F 78.1 °F 88% 30.09 in 10.0 mi ESE 5.8 mph - 0.04 in   Scattered Clouds
10:56 PM 82.9 °F 93.8 °F 79.0 °F 88% 30.09 in 10.0 mi East 4.6 mph - N/A   Scattered Clouds
11:56 PM 82.9 °F 91.8 °F 77.0 °F 82% 30.08 in 10.0 mi East 5.8 mph - N/A   Overcast